• In Hungary
  • List of Countries
  • For 7 days
  • Water Temperature
  • Satellite Maps
  • Weather Map
  • News
  • Weather Widgets
  • user-avatar
    Login

    Hourly Weather Baki

    Today, 16 July, Monday

    Time Temperature Precipitation Wind Pressure Humidity
    00:00 +17°C° 0 mm 2 mps 740 mmHg 83%
    01:00 +17°C° 0 mm 2 mps 740 mmHg 84%
    02:00 +16°C° 0 mm 2 mps 740 mmHg 85%
    03:00 +16°C° 0 mm 2 mps 740 mmHg 87%
    04:00 +16°C° 0 mm 2 mps 740 mmHg 89%
    05:00 +17°C° 0 mm 2 mps 740 mmHg 85%
    06:00 +18°C° 0 mm 3 mps 739 mmHg 82%
    07:00 +19°C° 0 mm 3 mps 739 mmHg 79%
    08:00 +21°C° 0.1 mm 3 mps 739 mmHg 73%
    09:00 +22°C° 0.1 mm 4 mps 739 mmHg 68%
    10:00 +25°C° 0.1 mm 4 mps 739 mmHg 62%
    11:00 +25°C° 0.2 mm 4 mps 739 mmHg 60%
    12:00 +26°C° 0.2 mm 4 mps 738 mmHg 58%
    13:00 +27°C° 0.2 mm 4 mps 738 mmHg 55%
    14:00 +26°C° 0.6 mm 4 mps 738 mmHg 57%
    15:00 +26°C° 0.6 mm 5 mps 737 mmHg 60%
    16:00 +26°C° 0.6 mm 5 mps 737 mmHg 62%
    17:00 +23°C° 0.4 mm 4 mps 737 mmHg 69%
    18:00 +22°C° 0.4 mm 3 mps 737 mmHg 75%
    19:00 +21°C° 0.4 mm 3 mps 737 mmHg 82%
    20:00 +20°C° 0 mm 2 mps 737 mmHg 85%
    21:00 +19°C° 0 mm 2 mps 736 mmHg 88%
    22:00 +18°C° 0 mm 2 mps 736 mmHg 90%
    23:00 +18°C° 0 mm 2 mps 736 mmHg 91%

    Tomorrow, 17 July, Tuesday

    Time Temperature Precipitation Wind Pressure Humidity
    00:00 +17°C° 0 mm 3 mps 736 mmHg 92%
    01:00 +17°C° 0 mm 3 mps 736 mmHg 93%
    02:00 +17°C° 0.8 mm 3 mps 735 mmHg 93%
    03:00 +17°C° 0.8 mm 4 mps 735 mmHg 93%
    04:00 +17°C° 0.8 mm 4 mps 735 mmHg 93%
    05:00 +16°C° 1.7 mm 5 mps 735 mmHg 93%
    06:00 +16°C° 1.7 mm 5 mps 735 mmHg 93%
    07:00 +17°C° 1.7 mm 6 mps 734 mmHg 93%
    08:00 +17°C° 1.2 mm 6 mps 734 mmHg 93%
    09:00 +17°C° 1.2 mm 6 mps 734 mmHg 92%
    10:00 +17°C° 1.2 mm 6 mps 734 mmHg 92%
    11:00 +17°C° 0.3 mm 6 mps 734 mmHg 91%
    12:00 +17°C° 0.3 mm 6 mps 734 mmHg 91%
    13:00 +17°C° 0.3 mm 6 mps 734 mmHg 90%
    14:00 +17°C° 0.2 mm 6 mps 734 mmHg 90%
    15:00 +17°C° 0.2 mm 6 mps 734 mmHg 90%
    16:00 +17°C° 0.2 mm 6 mps 734 mmHg 90%
    17:00 +17°C° 0.1 mm 6 mps 735 mmHg 91%
    18:00 +17°C° 0.1 mm 6 mps 735 mmHg 91%
    19:00 +17°C° 0.1 mm 5 mps 735 mmHg 92%
    20:00 +17°C° 0.2 mm 5 mps 735 mmHg 93%
    21:00 +17°C° 0.2 mm 5 mps 735 mmHg 93%
    22:00 +17°C° 0.2 mm 5 mps 735 mmHg 94%
    23:00 +17°C° 0.9 mm 5 mps 735 mmHg 95%

    Day after tomorrow, 18 July, Wednesday

    Time Temperature Precipitation Wind Pressure Humidity
    00:00 +17°C° 0.9 mm 5 mps 734 mmHg 95%
    01:00 +17°C° 0.9 mm 5 mps 734 mmHg 95%
    02:00 +17°C° 3 mm 6 mps 734 mmHg 95%
    03:00 +17°C° 3 mm 6 mps 734 mmHg 95%
    04:00 +17°C° 3 mm 7 mps 734 mmHg 95%
    05:00 +17°C° 3 mm 7 mps 734 mmHg 95%
    06:00 +17°C° 3 mm 7 mps 734 mmHg 95%
    07:00 +17°C° 3 mm 7 mps 734 mmHg 95%
    08:00 +17°C° 1.7 mm 7 mps 735 mmHg 95%
    09:00 +17°C° 1.7 mm 7 mps 735 mmHg 94%
    10:00 +18°C° 1.7 mm 7 mps 735 mmHg 94%
    11:00 +18°C° 0.6 mm 7 mps 735 mmHg 94%
    12:00 +19°C° 0.6 mm 6 mps 735 mmHg 93%
    13:00 +19°C° 0.6 mm 6 mps 736 mmHg 93%
    14:00 +19°C° 0.2 mm 6 mps 736 mmHg 92%
    15:00 +19°C° 0.2 mm 6 mps 736 mmHg 92%
    16:00 +19°C° 0.2 mm 6 mps 736 mmHg 92%
    17:00 +19°C° 0.1 mm 6 mps 737 mmHg 92%
    18:00 +19°C° 0.1 mm 6 mps 737 mmHg 93%
    19:00 +19°C° 0.1 mm 5 mps 737 mmHg 93%
    20:00 +19°C° 0.1 mm 5 mps 737 mmHg 93%
    21:00 +19°C° 0.1 mm 5 mps 738 mmHg 94%
    22:00 +19°C° 0.1 mm 5 mps 738 mmHg 94%
    23:00 +17°C° 0.1 mm 5 mps 738 mmHg 94%

    19 July, Thursday

    Time Temperature Precipitation Wind Pressure Humidity
    00:00 +17°C° 0.1 mm 5 mps 738 mmHg 95%
    01:00 +17°C° 0.1 mm 5 mps 738 mmHg 95%
    02:00 +18°C° 0.1 mm 4 mps 738 mmHg 95%
    03:00 +18°C° 0.1 mm 4 mps 738 mmHg 95%
    04:00 +17°C° 0.1 mm 4 mps 738 mmHg 95%
    05:00 +18°C° 0.1 mm 4 mps 739 mmHg 95%
    06:00 +18°C° 0.1 mm 4 mps 739 mmHg 95%
    07:00 +18°C° 0.1 mm 4 mps 739 mmHg 94%
    08:00 +18°C° 0.1 mm 4 mps 739 mmHg 93%
    09:00 +18°C° 0.1 mm 4 mps 740 mmHg 92%
    10:00 +19°C° 0.1 mm 4 mps 740 mmHg 91%
    11:00 +19°C° 0.1 mm 5 mps 740 mmHg 88%
    12:00 +20°C° 0.1 mm 5 mps 740 mmHg 84%
    13:00 +21°C° 0.1 mm 5 mps 740 mmHg 81%
    14:00 +21°C° 0 mm 4 mps 740 mmHg 78%
    15:00 +22°C° 0 mm 4 mps 740 mmHg 75%
    16:00 +23°C° 0 mm 4 mps 740 mmHg 73%
    17:00 +22°C° 0 mm 3 mps 739 mmHg 76%
    18:00 +22°C° 0 mm 3 mps 739 mmHg 80%
    19:00 +21°C° 0 mm 2 mps 739 mmHg 83%
    20:00 +20°C° 0 mm 2 mps 740 mmHg 86%
    21:00 +20°C° 0 mm 2 mps 740 mmHg 88%
    22:00 +19°C° 0 mm 2 mps 740 mmHg 91%
    23:00 +19°C° 0 mm 2 mps 740 mmHg 92%

    20 July, Friday

    Time Temperature Precipitation Wind Pressure Humidity
    00:00 +18°C° 0 mm 2 mps 740 mmHg 93%
    01:00 +18°C° 0 mm 3 mps 740 mmHg 94%
    02:00 +18°C° 0 mm 3 mps 740 mmHg 95%
    03:00 +18°C° 0 mm 3 mps 740 mmHg 96%
    04:00 +17°C° 0 mm 3 mps 740 mmHg 96%
    05:00 +18°C° 0.2 mm 3 mps 740 mmHg 95%
    06:00 +18°C° 0.2 mm 3 mps 740 mmHg 94%
    07:00 +19°C° 0.2 mm 3 mps 740 mmHg 93%
    08:00 +19°C° 0.1 mm 3 mps 740 mmHg 89%
    09:00 +20°C° 0.1 mm 3 mps 740 mmHg 85%
    10:00 +21°C° 0.1 mm 2 mps 740 mmHg 81%
    11:00 +23°C° 0.2 mm 2 mps 740 mmHg 78%
    12:00 +24°C° 0.2 mm 2 mps 739 mmHg 75%
    13:00 +25°C° 0.2 mm 2 mps 739 mmHg 71%
    14:00 +26°C° 0.1 mm 2 mps 739 mmHg 68%
    15:00 +26°C° 0.1 mm 2 mps 739 mmHg 64%
    16:00 +27°C° 0.1 mm 2 mps 739 mmHg 61%
    17:00 +26°C° 0.1 mm 2 mps 739 mmHg 66%
    18:00 +25°C° 0.1 mm 1 mps 739 mmHg 71%
    19:00 +24°C° 0.1 mm 1 mps 739 mmHg 76%
    20:00 +23°C° 0 mm 1 mps 739 mmHg 79%
    21:00 +22°C° 0 mm 1 mps 739 mmHg 82%
    22:00 +21°C° 0 mm 1 mps 739 mmHg 86%
    23:00 +18°C° 0 mm 0 mps 739 mmHg 87%

    21 July, Saturday

    Time Temperature Precipitation Wind Pressure Humidity
    00:00 +18°C° 0 mm 0 mps 739 mmHg 88%
    01:00 +18°C° 0 mm 0 mps 739 mmHg 89%
    02:00 +17°C° 0 mm 0 mps 739 mmHg 90%
    03:00 +17°C° 0 mm 0 mps 739 mmHg 90%
    04:00 +17°C° 0 mm 0 mps 739 mmHg 91%
    05:00 +18°C° 0 mm 0 mps 739 mmHg 87%
    06:00 +20°C° 0 mm 0 mps 739 mmHg 83%
    07:00 +21°C° 0 mm 0 mps 739 mmHg 78%
    08:00 +24°C° 0.2 mm 1 mps 739 mmHg 74%
    09:00 +25°C° 0.2 mm 1 mps 739 mmHg 69%
    10:00 +27°C° 0.2 mm 1 mps 739 mmHg 64%
    11:00 +28°C° 0.2 mm 1 mps 739 mmHg 60%
    12:00 +28°C° 0.2 mm 1 mps 739 mmHg 57%
    13:00 +29°C° 0.2 mm 1 mps 739 mmHg 53%
    14:00 +29°C° 0.2 mm 1 mps 739 mmHg 53%
    15:00 +29°C° 0.2 mm 1 mps 738 mmHg 53%
    16:00 +29°C° 0.2 mm 2 mps 738 mmHg 53%
    17:00 +28°C° 0.2 mm 2 mps 738 mmHg 59%
    18:00 +26°C° 0.2 mm 2 mps 738 mmHg 66%
    19:00 +25°C° 0.2 mm 2 mps 738 mmHg 72%
    20:00 +24°C° 0.3 mm 2 mps 738 mmHg 76%
    21:00 +23°C° 0.3 mm 2 mps 738 mmHg 80%
    22:00 +21°C° 0.3 mm 2 mps 738 mmHg 83%
    23:00 +21°C° 0.7 mm 2 mps 738 mmHg 85%
    Show more